Location: Melbourne
(37.8170°S, 144.9670°E)
Time: 06:37:55
(UTC+10:00)

Vanguard 1 Rocket - Visible Passes

Search period start: 23 May 2015 00:00
Search period end: 02 June 2015 00:00
Orbit: 655 x 4224 km, 34.3° (Epoch: 19 May)

Date Brightness Start Highest point End Pass type
(mag) Time Alt. Az. Time Alt. Az. Time Alt. Az.
23 May 11.4 02:58:28 10° N 03:15:24 25° NE 03:29:41 10° E visible
23 May 10.5 05:24:16 10° NW 05:46:00 51° NNE 05:58:33 10° E visible
24 May 11.7 01:50:33 10° NNE 02:01:15 15° NE 02:13:21 10° ENE visible
24 May 10.9 04:10:45 10° NNW 04:32:32 42° NNE 04:47:02 10° E visible
24 May 10.0 06:41:22 10° WNW 07:02:20 67° NNE 07:13:09 10° E visible
25 May 11.2 02:58:44 10° NNW 03:18:37 32° NE 03:34:27 10° E visible
25 May 10.3 05:26:23 10° NW 05:49:19 59° NNE 06:02:20 10° E visible
26 May 11.5 01:51:21 13° N 02:04:30 22° NE 02:19:53 10° E visible
26 May 10.7 04:12:22 10° NW 04:35:44 49° NNE 04:50:57 10° E visible
26 May 9.9 06:44:07 10° WNW 07:05:46 73° N 07:16:51 10° E visible
27 May 11.8 00:47:38 11° NE 00:50:18 12° NE 00:59:50 10° ENE visible
27 May 11.0 03:05:11 19° NNW 03:21:43 39° NNE 03:38:42 10° E visible
27 May 10.2 05:28:47 10° WNW 05:52:36 66° NNE 06:06:02 10° E visible
28 May 11.3 02:00:24 24° NNE 02:07:33 28° NE 02:25:01 10° E visible
28 May 10.5 04:17:53 16° NW 04:38:53 57° NNE 04:54:42 10° E visible
28 May 9.9 06:47:02 10° WNW 07:09:11 77° N 07:20:32 10° E visible
29 May 11.6 00:55:05 18° NE 00:55:05 18° NE 01:08:26 10° E visible
29 May 10.8 03:12:32 31° NNW 03:24:43 46° NNE 03:42:39 10° E visible
29 May 10.2 05:31:25 10° WNW 05:55:54 72° NNE 06:09:41 10° E visible
30 May 11.1 02:06:49 34° NNE 02:10:28 35° NE 02:29:28 10° E visible
30 May 10.4 04:24:14 25° NW 04:42:00 64° NNE 04:58:22 10° E visible
30 May 9.9 06:50:02 10° W 07:12:36 78° N 07:24:12 10° E visible
31 May 11.4 01:00:51 23° ENE 01:00:51 23° ENE 01:14:17 10° E visible
31 May 10.7 03:18:15 40° NNW 03:27:40 54° NNE 03:46:24 10° E visible
31 May 10.1 05:35:39 13° WNW 05:59:11 76° N 06:13:19 10° E visible
01 Jun 10.9 02:12:03 42° NNE 02:13:16 42° NE 02:33:29 10° E visible
01 Jun 10.4 04:29:25 31° NW 04:45:07 70° NNE 05:01:58 10° E visible
01 Jun 9.9 06:53:06 10° W 07:15:59 78° N 07:27:49 10° E visible
